Weather History for Grand Marais Airport, MN

Change the Weather History Date:

Monday, February 10, 2014

  Actual Average Record
Temperature  
Mean Temperature -6 °F -  
Max Temperature 1 °F 20 °F 37 °F (2009)
Min Temperature -14 °F 4 °F -23 °F (2008)
Degree Days  
Heating Degree Days 72    
Moisture  
Dew Point -17 °F    
Average Humidity 63    
Maximum Humidity 77    
Minimum Humidity 46    
Precipitation  
Precipitation 0.00 in - - ()
Sea Level Pressure  
Sea Level Pressure 30.19 in    
Wind  
Wind Speed 6 mph (WNW)    
Max Wind Speed 10 mph    
Max Gust Speed 20 mph    
Visibility 10 miles    
Events      
Averages and records for this station are not official NWS values.
T = Trace of Precipitation, MM = Missing Value Source: NWS Daily Summary

Daily Weather History Graph

Daily Weather History Graph

Search for Another Location

Airport:

Trip Planner

Search our weather history database for the weather conditions in past years. The results will help you decide how hot, cold, wet, or windy it might be!

Date:

Astronomy

Feb. 10, 2014 Rise Set
Actual Time 7:15 AM CST 5:16 PM CST
Civil Twilight 6:43 AM CST 5:48 PM CST
Nautical Twilight 6:06 AM CST 6:25 PM CST
Astronomical Twilight 5:31 AM CST 7:01 PM CST
Moon 1:38 PM CST (2/10) 4:16 AM CST (2/10)
Length of Visible Light 11h 05m
Length of Day
10h 00m
Waxing Gibbous, 85% of the Moon is Illuminated
Feb 10
Waxing Gibbous
Feb 14
Full
Feb 22
Last Quarter
Mar 1
New
Mar 8
First Quarter

Hourly Weather History & Observations

Time (CST) Temp. Windchill Dew Point Humidity Pressure Visibility Wind Dir Wind Speed Gust Speed Precip Events Conditions
12:14 AM -11.2 °F -30.1 °F -20.2 °F 64% 30.12 in 10.0 mi NW 10.4 mph - N/A   Overcast
12:33 AM -11.2 °F -27.8 °F -20.2 °F 64% 30.11 in 10.0 mi NW 8.1 mph - N/A   Mostly Cloudy
12:53 AM -11.2 °F -27.8 °F -18.4 °F 70% 30.11 in 5.0 mi NW 8.1 mph - N/A   Haze
1:13 AM -11.2 °F -24.8 °F -20.2 °F 64% 30.11 in 10.0 mi WNW 5.8 mph - N/A   Scattered Clouds
1:33 AM -11.2 °F -23.0 °F -20.2 °F 64% 30.12 in 10.0 mi NW 4.6 mph - N/A   Scattered Clouds
1:54 AM -11.2 °F - -20.2 °F 64% 30.12 in 10.0 mi Calm Calm - N/A   Mostly Cloudy
2:13 AM -11.2 °F -20.6 °F -18.4 °F 70% 30.12 in 10.0 mi WNW 3.5 mph - N/A   Overcast
2:34 AM -11.2 °F -23.0 °F -18.4 °F 70% 30.13 in 10.0 mi WNW 4.6 mph - N/A   Overcast
2:53 AM -11.2 °F -20.6 °F -18.4 °F 70% 30.13 in 10.0 mi WNW 3.5 mph - N/A   Overcast
3:13 AM -11.2 °F -20.6 °F -18.4 °F 70% 30.13 in 10.0 mi WNW 3.5 mph - N/A   Mostly Cloudy
3:34 AM -13.0 °F -25.1 °F -20.2 °F 70% 30.13 in 10.0 mi NW 4.6 mph - N/A   Scattered Clouds
3:54 AM -14.8 °F -24.8 °F -20.2 °F 77% 30.14 in 10.0 mi NW 3.5 mph - N/A   Scattered Clouds
4:14 AM -14.8 °F -29.1 °F -20.2 °F 77% 30.13 in 10.0 mi NW 5.8 mph - N/A   Scattered Clouds
4:33 AM -14.8 °F -27.2 °F -20.2 °F 77% 30.14 in 10.0 mi NW 4.6 mph - N/A   Mostly Cloudy
4:53 AM -14.8 °F -27.2 °F -20.2 °F 77% 30.14 in 10.0 mi NW 4.6 mph - N/A   Mostly Cloudy
5:13 AM -14.8 °F -29.1 °F -20.2 °F 77% 30.14 in 10.0 mi NW 5.8 mph - N/A   Overcast
5:33 AM -14.8 °F -24.8 °F -20.2 °F 77% 30.14 in 10.0 mi NW 3.5 mph - N/A   Overcast
5:54 AM -13.0 °F -27.0 °F -20.2 °F 70% 30.14 in 10.0 mi NW 5.8 mph - N/A   Overcast
6:13 AM -13.0 °F -25.1 °F -20.2 °F 70% 30.15 in 10.0 mi WNW 4.6 mph - N/A   Overcast
6:33 AM -13.0 °F -27.0 °F -20.2 °F 70% 30.15 in 10.0 mi NW 5.8 mph - N/A   Overcast
6:54 AM -13.0 °F -22.7 °F -20.2 °F 70% 30.15 in 10.0 mi NW 3.5 mph - N/A   Overcast
7:13 AM -13.0 °F - -20.2 °F 70% 30.16 in 10.0 mi Calm Calm - N/A   Overcast
7:34 AM -11.2 °F - -20.2 °F 64% 30.17 in 10.0 mi Calm Calm - N/A   Overcast
7:54 AM -11.2 °F -23.0 °F -20.2 °F 64% 30.17 in 10.0 mi NW 4.6 mph - N/A   Overcast
8:13 AM -11.2 °F -23.0 °F -20.2 °F 64% 30.18 in 10.0 mi NW 4.6 mph - N/A   Overcast
8:33 AM -11.2 °F -23.0 °F -18.4 °F 70% 30.18 in 10.0 mi NW 4.6 mph - N/A   Overcast
8:53 AM -9.4 °F -18.6 °F -20.2 °F 59% 30.18 in 10.0 mi WNW 3.5 mph - N/A   Overcast
9:13 AM -9.4 °F -24.3 °F -18.4 °F 65% 30.19 in 10.0 mi NW 6.9 mph - N/A   Overcast
9:33 AM -9.4 °F -20.9 °F -18.4 °F 65% 30.19 in 10.0 mi NW 4.6 mph - N/A   Mostly Cloudy
9:54 AM -7.6 °F -22.1 °F -18.4 °F 59% 30.19 in 10.0 mi WNW 6.9 mph - N/A   Scattered Clouds
10:13 AM -5.8 °F -23.4 °F -18.4 °F 55% 30.19 in 10.0 mi WNW 10.4 mph - N/A   Clear
10:33 AM -4.0 °F -19.0 °F -18.4 °F 50% 30.19 in 10.0 mi NW 8.1 mph 16.1 mph N/A   Clear
10:54 AM -2.2 °F -18.9 °F -18.4 °F 46% 30.20 in 10.0 mi NW 10.4 mph 16.1 mph N/A   Clear
11:13 AM -2.2 °F -15.6 °F -18.4 °F 46% 30.19 in 10.0 mi NW 6.9 mph 16.1 mph N/A   Clear
11:33 AM -2.2 °F -18.9 °F -18.4 °F 46% 30.19 in 10.0 mi WNW 10.4 mph 19.6 mph N/A   Clear
11:54 AM -2.2 °F -16.8 °F -18.4 °F 46% 30.19 in 10.0 mi WNW 8.1 mph - N/A   Clear
12:13 PM -0.4 °F -16.7 °F -16.6 °F 46% 30.19 in 10.0 mi NNW 10.4 mph - N/A   Clear
12:33 PM -0.4 °F -12.0 °F -16.6 °F 46% 30.19 in 10.0 mi WNW 5.8 mph - N/A   Clear
12:53 PM -0.4 °F -13.4 °F -16.6 °F 46% 30.19 in 10.0 mi WNW 6.9 mph - N/A   Clear
1:13 PM -0.4 °F -15.7 °F -16.6 °F 46% 30.18 in 10.0 mi NW 9.2 mph - N/A   Clear
1:33 PM -0.4 °F -15.7 °F -14.8 °F 51% 30.18 in 10.0 mi West 9.2 mph - N/A   Clear
1:53 PM -0.4 °F -12.0 °F -14.8 °F 51% 30.18 in 10.0 mi NW 5.8 mph - N/A   Scattered Clouds
2:13 PM -0.4 °F -13.4 °F -14.8 °F 51% 30.19 in 10.0 mi NW 6.9 mph - N/A   Overcast
2:33 PM -0.4 °F -14.7 °F -13.0 °F 55% 30.19 in 10.0 mi NW 8.1 mph - N/A   Overcast
2:53 PM 1.4 °F -12.5 °F -13.0 °F 51% 30.19 in 10.0 mi WNW 8.1 mph - N/A   Overcast
3:13 PM 1.4 °F -8.3 °F -13.0 °F 51% 30.20 in 10.0 mi WNW 4.6 mph - N/A   Mostly Cloudy
3:34 PM 1.4 °F -6.2 °F -11.2 °F 56% 30.20 in 10.0 mi WNW 3.5 mph - N/A   Scattered Clouds
3:53 PM 1.4 °F -12.5 °F -11.2 °F 56% 30.20 in 10.0 mi NW 8.1 mph - N/A   Clear
4:13 PM 1.4 °F -8.3 °F -11.2 °F 56% 30.21 in 10.0 mi West 4.6 mph - N/A   Clear
4:33 PM -0.4 °F -10.4 °F -13.0 °F 55% 30.21 in 10.0 mi WNW 4.6 mph - N/A   Clear
4:53 PM -0.4 °F -12.0 °F -13.0 °F 55% 30.22 in 10.0 mi WNW 5.8 mph - N/A   Clear
5:13 PM -2.2 °F -10.4 °F -14.8 °F 55% 30.23 in 10.0 mi WNW 3.5 mph - N/A   Clear
5:34 PM -4.0 °F -12.4 °F -14.8 °F 60% 30.23 in 10.0 mi West 3.5 mph - N/A   Clear
5:53 PM -5.8 °F -16.7 °F -14.8 °F 65% 30.24 in 10.0 mi West 4.6 mph - N/A   Clear
6:13 PM -5.8 °F -16.7 °F -14.8 °F 65% 30.24 in 10.0 mi West 4.6 mph - N/A   Scattered Clouds
6:33 PM -5.8 °F -16.7 °F -14.8 °F 65% 30.24 in 10.0 mi West 4.6 mph - N/A   Scattered Clouds
6:53 PM -5.8 °F -14.5 °F -14.8 °F 65% 30.24 in 10.0 mi West 3.5 mph - N/A   Clear
7:14 PM -5.8 °F -16.7 °F -14.8 °F 65% 30.24 in 10.0 mi WNW 4.6 mph - N/A   Clear
7:33 PM -5.8 °F -16.7 °F -14.8 °F 65% 30.24 in 10.0 mi WNW 4.6 mph - N/A   Scattered Clouds
7:54 PM -5.8 °F -14.5 °F -14.8 °F 65% 30.24 in 10.0 mi WNW 3.5 mph - N/A   Scattered Clouds
8:13 PM -5.8 °F -18.4 °F -14.8 °F 65% 30.25 in 10.0 mi WNW 5.8 mph - N/A   Scattered Clouds
8:33 PM -7.6 °F -16.5 °F -14.8 °F 71% 30.25 in 10.0 mi WNW 3.5 mph - N/A   Scattered Clouds
8:54 PM -7.6 °F -16.5 °F -14.8 °F 71% 30.25 in 10.0 mi West 3.5 mph - N/A   Scattered Clouds
9:13 PM -7.6 °F - -14.8 °F 71% 30.25 in 10.0 mi Calm Calm - N/A   Clear
9:33 PM -7.6 °F - -14.8 °F 71% 30.25 in 10.0 mi Calm Calm - N/A   Scattered Clouds
9:54 PM -7.6 °F -18.8 °F -14.8 °F 71% 30.25 in 10.0 mi WNW 4.6 mph - N/A   Scattered Clouds
10:13 PM -7.6 °F - -14.8 °F 71% 30.26 in 10.0 mi Calm Calm - N/A   Scattered Clouds
10:33 PM -7.6 °F - -14.8 °F 71% 30.26 in 10.0 mi Calm Calm - N/A   Clear
10:53 PM -9.4 °F -18.6 °F -16.6 °F 71% 30.26 in 10.0 mi SW 3.5 mph - N/A   Clear
11:14 PM -9.4 °F - -16.6 °F 71% 30.26 in 10.0 mi Calm Calm - N/A   Scattered Clouds
11:33 PM -9.4 °F - -16.6 °F 71% 30.25 in 10.0 mi Calm Calm - N/A   Scattered Clouds
11:53 PM -11.2 °F - -18.4 °F 70% 30.25 in 10.0 mi Calm Calm - N/A   Scattered Clouds